STARLINK-11246 [DTC]

Last updated on Tue Oct 01 2024 00:02:04 GMT+0000 (Coordinated Universal Time)

1 60932U 24155J 24274.38274482 -.00005109 00000+0 -27209-4 0 9994 2 60932 53.1608 51.0791 0001105 127.1311 232.9811 15.76749049 5891
UTC large
Height (km)
Speed (km/s)
/
Latitude / Longitude
Inclination (degrees)
Orbital Period (minutes)
Azimuth
Elevation
Range (km)
Doppler Factor

Next 0 passes for location: London (51.5072 / 0.1276)

Sorry there are no passes over London.